Wind_Speed
4 4 5 5 4 5 5 4 4 5 4 4 5 5 5 4 4 3 3 2 1 0 1 1 1 2 2 2 2 2 2 2 2 1 0 0 0 1 2 2 2 2 3 3 3 3 3 3 3
4 4 5 5 4 5 5 4 4 4 4 4 4 4 4 5 4 4 3 2 1 1 1 1 2 1 1 2 2 2 2 1 1 1 1 1 0 1 1 2 2 2 2 3 3 3 3 3 3
4 4 5 5 5 5 4 4 4 4 4 4 4 4 4 4 4 4 3 3 3 1 0 1 2 1 1 2 2 2 2 1 1 2 1 1 1 1 1 2 2 3 3 3 3 3 4 4 4
4 3 5 5 5 5 5 4 3 3 3 4 4 4 4 5 4 4 4 3 4 3 1 1 1 2 1 2 3 3 3 2 2 2 2 2 2 2 2 3 3 3 4 4 3 3 4 4 4
4 4 5 5 5 5 5 5 3 2 2 3 3 4 4 4 5 4 4 4 4 4 3 2 2 2 2 2 4 4 4 3 3 3 3 2 2 3 4 4 4 4 4 4 3 3 4 4 4
5 5 5 5 5 4 5 5 5 4 3 3 4 4 4 4 5 5 5 5 5 5 4 4 3 4 3 3 4 5 4 4 4 4 3 3 3 3 4 4 4 4 4 4 4 4 4 4 4
6 6 6 6 5 4 4 5 5 4 4 4 4 4 4 4 5 5 5 5 6 5 5 5 4 4 5 5 5 5 5 5 5 5 4 4 4 4 5 4 4 4 4 4 4 4 4 5 5
7 7 6 6 5 5 5 4 4 5 5 5 5 4 5 5 5 5 5 5 5 5 5 5 5 5 5 6 6 6 6 6 6 5 5 5 5 4 4 4 5 5 5 4 4 4 4 5 5
7 6 6 5 5 4 5 5 4 5 5 5 5 5 5 6 6 6 6 6 6 6 6 6 5 6 6 6 6 6 6 6 6 5 5 5 5 5 5 5 5 5 5 5 4 4 5 5 6
7 7 6 6 5 5 5 5 5 5 6 6 6 6 6 6 6 6 6 7 7 6 6 7 7 6 6 6 7 7 7 6 6 6 6 6 6 6 6 5 5 5 5 5 4 5 5 6 6
7 6 6 6 5 5 5 6 6 6 6 6 6 6 6 6 7 7 7 7 8 7 6 7 8 7 6 6 7 7 7 7 7 7 7 7 7 6 6 6 5 5 5 5 5 5 6 6 7
7 6 6 6 6 5 5 6 6 6 6 7 7 7 7 7 7 7 7 7 7 8 8 7 8 8 8 8 7 8 7 7 7 7 7 7 7 6 7 6 6 6 6 6 6 6 7 7 7
5 6 6 6 6 5 5 6 6 6 7 8 8 7 7 7 7 7 7 7 7 8 8 8 8 9 9 8 8 8 8 7 7 7 7 7 7 7 7 6 6 6 6 6 6 7 7 7 8
6 6 6 6 6 6 6 6 6 6 8 8 8 8 8 7 7 7 7 8 8 8 8 8 8 8 8 8 8 8 8 8 8 7 7 7 7 7 6 6 7 7 7 7 7 6 7 7 7
7 7 7 6 6 6 6 6 6 7 8 8 8 8 8 8 8 7 7 8 8 8 8 8 8 8 8 9 9 8 8 8 7 7 7 7 7 7 6 7 7 7 7 7 7 7 7 7 7
8 7 7 7 7 7 7 6 7 7 7 8 8 8 9 9 8 7 7 8 8 8 8 7 8 8 8 9 9 9 8 7 8 8 8 7 7 7 7 7 8 8 7 7 7 7 7 7 7
8 8 7 7 7 7 7 6 7 7 7 8 8 8 9 9 8 8 7 8 8 9 9 8 8 8 8 8 8 8 8 7 8 8 8 8 7 7 7 8 8 8 7 7 7 7 7 7 7
9 9 8 8 7 7 7 7 7 8 8 8 9 8 8 9 8 8 8 8 8 8 8 8 8 8 7 7 8 8 8 8 8 8 8 8 8 8 7 7 7 7 7 7 7 7 7 7 7
10 9 9 8 8 8 8 8 8 8 8 8 8 8 8 9 8 8 8 8 8 8 8 8 8 7 7 7 7 8 8 8 8 8 8 8 7 7 7 7 7 7 7 8 7 7 7 7 7
10 10 9 8 9 10 9 9 8 8 8 8 8 8 9 9 9 8 8 8 8 8 7 7 8 8 7 7 8 7 7 8 8 7 8 8 8 8 8 8 8 7 7 7 7 6 6 7 7
10 10 10 10 10 11 11 10 10 9 9 9 8 8 8 9 9 9 8 8 8 9 9 8 8 8 8 8 8 7 7 8 7 8 8 8 8 8 8 8 7 7 7 7 7 6 6 7 7
11 11 11 11 11 11 11 11 10 10 10 9 9 8 8 8 8 8 8 8 8 9 9 8 8 9 9 9 9 8 8 8 8 8 9 8 8 8 8 8 7 7 7 7 7 7 7 7 7
12 12 12 12 12 12 12 11 10 10 10 10 9 8 8 9 9 8 8 8 8 9 9 9 9 9 10 10 10 9 9 9 9 9 9 9 9 9 9 8 8 7 7 7 7 7 8 8 8
13 13 13 13 13 13 12 12 11 10 10 10 9 9 9 9 9 9 8 9 9 9 10 10 10 10 10 10 10 10 10 9 9 9 9 9 9 9 9 8 8 7 7 6 7 8 8 8 8
14 14 14 14 14 14 13 13 12 11 11 10 10 10 10 9 9 9 8 9 9 10 10 10 10 11 10 10 10 10 10 9 9 9 9 9 9 9 9 9 8 8 7 7 7 7 8 8 8
15 15 15 15 14 13 13 13 12 11 11 10 10 10 10 9 10 10 10 10 10 10 10 10 10 10 10 10 10 10 10 9 9 9 10 9 9 10 10 9 9 9 8 8 8 8 8 8 9
15 15 15 16 15 14 14 13 13 12 11 11 11 10 10 10 10 11 10 10 11 11 10 10 10 10 10 10 10 10 9 10 10 10 10 10 10 10 10 10 10 10 10 10 9 9 9 9 9
16 16 16 17 16 15 15 15 14 13 12 11 11 10 10 10 10 11 11 11 10 11 11 11 11 11 10 10 10 9 9 10 10 10 10 11 10 11 10 10 10 10 10 10 9 9 9 9 10
16 17 18 18 18 17 17 16 14 13 13 12 11 11 10 10 10 10 10 10 10 10 10 10 10 10 10 10 10 10 10 10 10 11 11 10 10 10 10 10 10 10 9 9 8 9 10 10 10
17 18 19 19 18 18 18 16 14 14 14 13 12 12 11 10 10 10 10 11 10 10 10 10 10 10 11 11 11 10 10 10 10 11 10 10 10 10 10 10 10 10 9 9 9 10 11 11 11
Wind_Direction
178 174 167 164 173 177 174 173 170 164 164 165 164 173 182 184 182 179 176 158 156 86 64 111 128 135 128 122 132 142 138 135 138 137 146 130 71 35 35 35 32 22 18 17 22 28 23 20 10
177 184 182 176 182 182 175 178 179 165 164 166 171 178 191 189 195 199 197 195 186 67 55 144 155 135 149 151 165 171 171 182 180 188 215 207 273 332 358 359 3 355 350 353 359 8 7 4 2
173 182 188 187 194 192 184 182 169 160 168 170 178 188 195 195 199 206 214 224 214 195 68 157 179 178 176 182 185 198 205 214 241 248 237 245 263 273 297 321 330 327 328 333 336 346 352 354 358
183 184 198 202 204 205 189 171 165 166 164 178 187 193 201 206 209 212 218 220 218 219 228 246 229 222 228 212 218 233 225 229 253 265 257 260 264 271 280 298 304 307 313 319 324 329 335 339 348
197 202 213 214 214 213 192 185 197 193 187 184 194 200 207 209 211 219 224 218 217 222 224 241 240 233 241 228 228 239 236 239 262 268 255 255 262 275 278 286 295 299 306 310 314 316 319 325 334
212 212 221 219 217 212 203 200 208 209 213 217 215 214 220 218 221 226 233 227 224 228 228 240 239 245 251 250 244 242 242 252 265 267 260 258 267 278 278 285 298 299 300 304 308 307 310 323 329
212 219 227 224 216 208 210 208 210 218 229 237 236 232 231 233 239 238 233 227 227 226 230 241 243 241 247 248 251 250 251 256 261 262 263 264 264 277 283 286 296 297 299 301 306 308 306 312 321
220 223 228 229 226 220 219 213 216 219 229 239 239 242 245 251 253 251 247 243 239 237 242 250 255 258 258 254 252 250 252 251 253 263 264 265 264 271 281 285 294 298 300 300 302 307 309 313 317
219 222 230 233 231 230 228 224 228 230 237 240 241 247 257 262 264 258 253 252 250 246 247 255 262 265 268 268 264 258 254 252 252 259 264 266 267 272 281 286 297 303 304 300 300 303 307 312 314
226 226 233 240 237 233 233 234 235 237 244 248 247 249 257 262 265 262 260 258 256 252 248 254 260 266 271 272 265 264 262 263 264 268 273 276 275 280 282 284 291 299 307 305 302 307 309 310 312
222 229 233 238 241 242 246 244 241 239 243 250 253 248 251 258 264 263 254 250 252 254 259 265 265 266 269 268 264 262 263 266 267 269 273 274 272 276 281 283 288 293 302 303 302 300 302 308 312
229 233 235 238 243 247 250 249 249 245 245 251 254 253 250 253 256 258 253 251 257 255 257 263 265 261 264 266 265 263 260 262 265 265 265 267 269 272 275 278 283 288 290 290 294 297 298 303 308
235 243 244 248 249 255 256 249 248 251 251 253 258 256 253 252 253 254 251 252 252 253 256 257 263 262 258 261 260 261 258 260 261 258 260 262 267 270 271 271 275 283 289 292 291 293 297 300 303
232 237 244 248 252 251 256 257 254 252 253 253 254 253 251 252 254 255 254 256 259 262 261 259 261 261 258 259 260 257 257 259 258 254 253 257 260 263 265 271 276 285 292 295 296 297 303 306 308
237 239 245 246 249 253 256 256 254 252 251 254 254 253 250 248 250 250 251 254 259 264 265 263 263 263 262 260 259 255 252 252 250 246 252 254 258 260 264 271 277 284 291 293 295 298 301 304 307
242 243 248 247 250 252 255 257 254 251 250 254 253 253 254 251 250 252 251 251 254 259 263 264 265 261 263 262 259 255 252 249 246 246 249 250 257 262 266 271 277 281 286 287 290 294 298 301 305
244 246 247 246 248 251 255 256 256 255 254 255 255 256 256 255 250 253 257 256 254 257 259 261 263 262 263 262 257 257 254 252 247 245 246 249 256 261 263 268 276 280 281 283 287 287 294 299 302
244 243 244 246 249 252 255 257 255 258 254 254 257 258 257 253 255 257 259 260 259 260 261 261 262 264 262 259 255 254 252 254 250 245 246 248 252 257 262 265 271 275 280 281 284 287 290 296 300
243 244 244 246 251 254 256 258 257 259 260 258 261 261 260 259 260 261 261 260 259 258 260 261 263 262 258 255 259 258 255 252 251 254 248 249 254 260 267 268 273 277 280 280 284 288 294 298 301
246 245 246 249 254 258 256 259 258 260 262 261 259 258 259 260 258 262 264 261 255 255 261 261 258 259 257 256 259 261 255 256 256 256 255 253 254 264 272 276 279 279 277 278 284 289 295 302 304
246 250 252 252 253 255 257 257 257 259 262 263 260 256 256 257 260 264 259 256 257 259 262 260 257 252 251 255 256 254 255 261 260 255 261 262 260 263 269 274 277 278 276 276 278 281 289 296 302
250 252 252 252 252 255 257 256 252 256 258 262 263 258 257 257 257 261 260 256 255 257 259 259 257 254 251 252 251 254 256 258 258 256 258 261 260 264 268 271 273 274 276 276 277 281 287 293 298
251 252 253 252 252 254 256 256 252 253 256 258 260 261 258 259 257 256 255 254 253 254 258 259 255 252 251 252 253 254 257 259 259 257 258 260 260 263 267 268 268 271 271 273 274 280 287 292 296
252 254 257 251 251 252 255 255 253 253 257 258 257 258 259 257 257 257 255 252 255 258 262 259 254 251 249 248 251 254 258 258 258 258 259 261 259 261 262 263 263 267 268 272 278 280 284 291 295
254 254 253 251 252 256 256 256 258 256 257 257 255 254 256 254 254 255 255 254 255 256 258 256 253 250 246 246 250 253 255 255 257 257 258 261 259 257 257 260 265 267 269 274 278 281 286 291 294
253 251 251 253 255 257 256 258 260 256 256 258 257 255 252 253 253 254 255 256 257 256 254 256 254 249 248 250 250 253 254 254 258 259 256 256 257 257 257 260 266 265 266 274 278 280 284 291 293
251 249 250 252 254 255 254 257 258 256 251 253 255 254 251 252 254 254 256 258 258 255 254 254 252 248 249 251 253 250 251 253 258 261 256 257 259 261 258 261 266 267 269 274 277 279 284 290 294
249 249 247 250 255 257 254 256 256 257 254 252 252 252 251 251 256 259 258 258 258 256 254 254 250 248 249 247 248 248 251 256 260 263 260 258 260 261 258 260 264 267 271 272 273 277 284 291 294
249 247 247 250 253 256 256 256 256 254 252 253 255 256 251 248 252 255 257 259 258 254 253 253 249 247 248 248 247 248 253 257 258 261 258 256 261 262 261 260 263 267 270 270 273 278 284 289 295
250 251 251 253 255 257 258 257 254 255 254 254 256 255 252 249 253 257 257 255 254 250 250 249 246 245 246 247 248 248 252 256 259 260 254 256 259 262 263 260 261 264 266 267 271 277 284 288 293
Height
5886 5887 5888 5890 5891 5891 5890 5891 5891 5891 5892 5892 5893 5894 5895 5896 5898 5900 5898 5896 5896 5896 5895 5894 5895 5895 5895 5896 5896 5897 5897 5897 5897 5897 5897 5897 5896 5896 5895 5895 5894 5894 5893 5893 5892 5891 5891 5890 5889
5886 5887 5889 5890 5890 5890 5891 5891 5891 5892 5892 5892 5893 5894 5894 5895 5896 5897 5896 5896 5896 5896 5895 5895 5895 5895 5896 5896 5896 5897 5897 5897 5897 5897 5897 5897 5897 5896 5896 5895 5895 5894 5894 5893 5892 5892 5891 5890 5889
5886 5887 5889 5889 5889 5890 5891 5891 5891 5891 5892 5892 5893 5894 5894 5895 5896 5896 5896 5896 5896 5896 5896 5896 5896 5896 5896 5896 5897 5897 5897 5897 5897 5897 5897 5897 5896 5896 5896 5895 5895 5894 5894 5893 5892 5892 5891 5890 5889
5886 5888 5889 5889 5889 5890 5890 5890 5890 5891 5891 5892 5893 5893 5894 5894 5895 5895 5895 5896 5896 5896 5896 5896 5895 5896 5896 5896 5897 5897 5897 5897 5897 5897 5897 5897 5896 5896 5896 5895 5895 5894 5894 5893 5892 5891 5890 5890 5889
5886 5887 5888 5888 5889 5889 5890 5890 5891 5891 5891 5892 5893 5893 5893 5894 5894 5894 5895 5895 5895 5896 5896 5896 5895 5896 5896 5896 5896 5897 5896 5897 5897 5897 5896 5896 5896 5896 5895 5895 5894 5894 5893 5893 5892 5891 5890 5889 5889
5886 5887 5887 5888 5888 5889 5889 5890 5890 5890 5891 5891 5892 5892 5892 5893 5893 5893 5894 5894 5895 5895 5895 5895 5895 5895 5895 5896 5896 5896 5896 5896 5896 5896 5896 5896 5895 5895 5895 5894 5894 5893 5893 5892 5891 5890 5889 5889 5888
5886 5886 5886 5887 5887 5888 5889 5889 5890 5890 5890 5891 5891 5892 5892 5892 5892 5892 5893 5893 5893 5894 5895 5895 5895 5895 5895 5895 5895 5895 5896 5896 5895 5895 5895 5895 5895 5894 5894 5893 5893 5892 5892 5891 5890 5889 5889 5888 5887
5884 5886 5885 5886 5887 5888 5888 5888 5889 5889 5889 5890 5891 5891 5891 5891 5891 5891 5891 5892 5893 5893 5894 5894 5894 5894 5894 5894 5895 5895 5895 5895 5895 5894 5894 5894 5894 5893 5893 5893 5892 5892 5891 5890 5889 5889 5888 5887 5886
5884 5885 5885 5885 5886 5887 5887 5887 5888 5888 5888 5889 5889 5890 5890 5890 5890 5891 5891 5891 5892 5892 5893 5893 5893 5893 5893 5893 5893 5893 5894 5893 5893 5893 5893 5893 5893 5892 5892 5892 5891 5891 5890 5889 5888 5888 5887 5886 5885
5883 5883 5884 5884 5885 5886 5886 5886 5887 5887 5887 5887 5888 5888 5889 5889 5889 5890 5890 5890 5891 5891 5891 5891 5892 5892 5892 5892 5892 5892 5892 5892 5892 5892 5892 5892 5891 5891 5891 5891 5890 5889 5889 5888 5887 5887 5886 5885 5884
5881 5882 5882 5883 5883 5884 5884 5885 5885 5885 5886 5886 5887 5887 5887 5888 5888 5888 5888 5889 5889 5890 5890 5890 5891 5891 5891 5891 5891 5891 5891 5891 5891 5891 5891 5891 5890 5890 5890 5889 5889 5888 5888 5887 5886 5885 5885 5884 5883
5880 5881 5881 5882 5882 5882 5883 5883 5884 5884 5884 5885 5885 5885 5886 5886 5886 5886 5887 5887 5888 5888 5889 5889 5889 5889 5889 5889 5889 5889 5889 5889 5889 5889 5889 5889 5888 5888 5888 5888 5888 5887 5886 5886 5885 5884 5884 5883 5882
5879 5879 5880 5880 5880 5881 5881 5882 5882 5882 5882 5883 5883 5883 5884 5885 5885 5885 5885 5885 5886 5886 5887 5887 5887 5887 5887 5887 5887 5887 5887 5887 5887 5887 5887 5887 5887 5887 5886 5886 5886 5886 5885 5884 5884 5883 5882 5882 5881
5878 5878 5878 5878 5879 5879 5880 5880 5881 5881 5881 5881 5881 5882 5882 5883 5883 5883 5884 5884 5884 5884 5885 5885 5885 5885 5885 5885 5885 5885 5885 5885 5885 5885 5885 5885 5885 5885 5885 5885 5885 5884 5883 5883 5882 5882 5881 5880 5879
5876 5877 5877 5877 5877 5878 5878 5879 5879 5879 5879 5879 5879 5880 5880 5881 5881 5882 5882 5882 5882 5882 5882 5883 5883 5883 5883 5883 5883 5883 5883 5883 5883 5883 5883 5884 5883 5883 5883 5883 5883 5883 5882 5881 5881 5880 5880 5879 5878
5875 5875 5876 5876 5876 5876 5878 5877 5877 5877 5877 5877 5877 5878 5878 5879 5879 5880 5880 5880 5880 5880 5880 5880 5881 5881 5881 5881 5881 5881 5881 5881 5881 5881 5881 5882 5882 5882 5882 5882 5881 5881 5880 5880 5879 5879 5878 5877 5876
5873 5873 5874 5874 5874 5874 5875 5875 5875 5875 5875 5875 5875 5876 5876 5877 5877 5877 5878 5878 5878 5878 5878 5878 5878 5878 5879 5879 5879 5879 5879 5879 5879 5879 5880 5880 5880 5880 5880 5880 5880 5879 5879 5878 5878 5877 5877 5876 5875
5871 5871 5871 5872 5872 5872 5872 5873 5873 5873 5873 5873 5873 5874 5874 5874 5875 5875 5875 5876 5876 5876 5876 5876 5876 5876 5876 5876 5877 5877 5877 5877 5877 5878 5878 5878 5878 5878 5878 5878 5878 5877 5877 5877 5876 5876 5875 5874 5873
5868 5868 5869 5870 5870 5870 5870 5870 5871 5870 5871 5871 5871 5871 5872 5872 5873 5873 5873 5873 5874 5874 5874 5874 5874 5874 5874 5875 5875 5875 5875 5875 5876 5876 5876 5876 5876 5876 5876 5876 5876 5876 5875 5875 5874 5874 5873 5872 5871
5865 5866 5866 5867 5867 5867 5867 5868 5868 5868 5868 5868 5869 5869 5869 5870 5870 5870 5870 5871 5871 5871 5871 5872 5872 5872 5873 5873 5873 5873 5873 5873 5873 5873 5874 5874 5874 5874 5874 5874 5874 5874 5873 5873 5872 5872 5871 5870 5869
5863 5863 5864 5864 5864 5864 5865 5865 5866 5866 5865 5866 5866 5867 5867 5867 5867 5868 5868 5869 5869 5869 5869 5870 5870 5870 5871 5871 5871 5871 5872 5872 5872 5872 5872 5872 5872 5872 5872 5872 5872 5872 5871 5871 5870 5870 5869 5869 5868
5860 5860 5861 5861 5861 5861 5863 5862 5864 5863 5863 5864 5864 5864 5865 5865 5865 5865 5866 5866 5867 5867 5867 5868 5868 5868 5868 5869 5869 5870 5870 5870 5870 5870 5870 5870 5870 5870 5870 5870 5870 5870 5869 5869 5868 5868 5867 5867 5866
5857 5857 5857 5858 5858 5858 5859 5859 5861 5860 5860 5861 5861 5861 5862 5862 5863 5863 5863 5864 5864 5865 5865 5865 5866 5866 5866 5867 5867 5867 5868 5868 5868 5868 5868 5868 5868 5868 5868 5868 5868 5868 5867 5867 5866 5866 5865 5865 5864
5853 5854 5854 5854 5854 5855 5856 5856 5857 5857 5858 5858 5858 5859 5859 5859 5860 5860 5861 5861 5862 5863 5863 5863 5863 5864 5864 5864 5864 5865 5865 5865 5865 5865 5865 5865 5865 5865 5865 5865 5865 5865 5865 5865 5864 5864 5863 5862 5862
5850 5851 5851 5850 5851 5851 5852 5852 5853 5854 5854 5854 5855 5855 5856 5857 5857 5857 5858 5858 5859 5860 5860 5860 5860 5861 5861 5861 5862 5862 5863 5863 5863 5863 5863 5863 5863 5863 5863 5863 5863 5863 5863 5862 5862 5861 5861 5860 5859
5845 5846 5847 5848 5848 5848 5848 5848 5850 5850 5850 5851 5851 5852 5853 5854 5854 5854 5855 5855 5856 5857 5857 5857 5857 5858 5858 5859 5859 5860 5860 5860 5860 5860 5860 5860 5860 5860 5861 5861 5861 5861 5860 5860 5859 5859 5858 5858 5857
5841 5841 5842 5843 5843 5844 5844 5844 5845 5846 5846 5847 5848 5848 5849 5850 5851 5851 5852 5852 5853 5854 5854 5854 5855 5855 5856 5856 5857 5857 5857 5858 5858 5858 5858 5858 5857 5858 5858 5858 5858 5858 5858 5857 5857 5856 5856 5855 5854
5837 5837 5838 5838 5838 5839 5840 5840 5841 5842 5843 5844 5844 5845 5846 5847 5848 5848 5848 5849 5850 5850 5851 5851 5852 5852 5853 5853 5854 5854 5854 5855 5855 5855 5855 5855 5855 5855 5855 5855 5855 5855 5854 5854 5854 5854 5853 5853 5852
5832 5833 5833 5834 5834 5835 5835 5838 5838 5838 5839 5840 5840 5841 5842 5843 5844 5844 5845 5845 5846 5847 5848 5848 5849 5849 5850 5851 5851 5852 5852 5852 5852 5852 5852 5852 5852 5852 5852 5852 5852 5852 5852 5851 5851 5851 5851 5850 5849
5827 5828 5828 5829 5830 5830 5830 5835 5834 5834 5835 5836 5837 5838 5838 5839 5840 5841 5842 5842 5843 5844 5844 5845 5846 5846 5847 5848 5848 5849 5849 5849 5849 5849 5848 5849 5849 5849 5849 5849 5849 5849 5849 5849 5848 5848 5848 5847 5846